Find Starlink 31779

NORAD ID: 59744 Int'l Des: 2024-090 Owner: SPXS Country: US Constellation: starlink operational
LEOCIRCULAR

Current View

Loading 3D Globe...

About Starlink 31779

Starlink 31779 (NORAD 59744) is a starlink constellation satellite (v2 mini) launched May 13, 2024 by SPXS of US. It operates in LEO, CIRCULAR orbit with a mass of 730.00 kg.

About Starlink 31779

Description loading...

Upcoming Passes

Passes for default location (London). Set your location on the main map for personalized predictions.

Altitude History

Loading altitude history...

Two-Line Element Set

1 59744U 24090Q 26169.78441361 -.00000786 00000-0 -19035-4 0 9997
2 59744 43.0036 332.3616 0001323 265.0794 94.9906 15.27567424118902
Epoch: Jun 18, 2026 • Age: 12 hours

Current Status

Altitude 482.3 km
Velocity 7.63 km/s
Sub-Earth Point 8.21°N, 135.11°E
Launch Date May 13, 2024
Age 2 years
Type internet

Technical Details

Classification Payload
Mass 730.00 kg
Dry Mass 700.00 kg
Total Mass 730.00 kg
Length 0.30 m
Diameter 4.10 m
Span 29.00 m
Shape Box + pan
Manufacturer SPXS
Bus Type Starlink V2M
Phase Status In Orbit
Owner/State SPXS/US

Most Searched